CHUANG XIN 26 (CX-26)

Last updated on Sat Sep 05 2026 00:03:20 GMT+0000 (Coordinated Universal Time)

1 69972U 26158A 26247.59652553 .00000082 00000+0 10252-3 0 9998 2 69972 49.9837 63.4849 0005184 122.6178 237.5236 14.25127479 8035
UTC large
Height (km)
Speed (km/s)
/
Latitude / Longitude
Inclination (degrees)
Orbital Period (minutes)
Azimuth
Elevation
Range (km)
Doppler Factor

Next 0 passes for location: London (51.5072 / 0.1276)

No passes found over London.
CHUANG XIN 26 (CX-26)